Time,TemperatureF,DewpointF,PressureIn,WindDirection,WindDirectionDegrees,WindSpeedMPH,WindSpeedGustMPH,Humidity,HourlyPrecipIn,Conditions,Clouds,dailyrainin,SoftwareType,DateUTC
2013-05-06 00:01:00,60.0,-99.9,29.82,NW,317,3.0,4.0,-999,-99.99,,,-99.99,,2013-05-06 07:01:00,
2013-05-06 00:11:00,60.0,-99.9,29.82,NW,317,3.0,4.0,-999,-99.99,,,-99.99,,2013-05-06 07:11:00,
2013-05-06 00:22:00,60.0,-99.9,29.83,NNW,327,4.0,6.0,-999,-99.99,,,-99.99,,2013-05-06 07:22:00,
2013-05-06 00:32:00,60.0,-99.9,29.83,NW,309,4.0,5.0,-999,-99.99,,,-99.99,,2013-05-06 07:32:00,
2013-05-06 00:42:00,60.0,-99.9,29.83,NW,309,4.0,5.0,-999,-99.99,,,-99.99,,2013-05-06 07:42:00,
2013-05-06 00:52:00,59.0,-99.9,29.84,NW,317,5.0,8.0,-999,-99.99,,,-99.99,,2013-05-06 07:52:00,
2013-05-06 01:02:00,59.0,-99.9,29.83,North,349,4.0,6.0,-999,-99.99,,,-99.99,,2013-05-06 08:02:00,
2013-05-06 01:12:00,59.0,-99.9,29.84,NW,321,3.0,4.0,-999,-99.99,,,-99.99,,2013-05-06 08:12:00,
2013-05-06 01:22:00,60.0,-99.9,29.84,NNE,26,4.0,5.0,-999,-99.99,,,-99.99,,2013-05-06 08:22:00,
2013-05-06 01:32:00,60.0,-99.9,29.84,NNE,15,4.0,6.0,-999,-99.99,,,-99.99,,2013-05-06 08:32:00,
2013-05-06 01:42:00,60.0,-99.9,29.84,North,358,6.0,8.0,-999,-99.99,,,-99.99,,2013-05-06 08:42:00,
2013-05-06 01:52:00,60.0,-99.9,29.84,NNE,25,5.0,7.0,-999,-99.99,,,-99.99,,2013-05-06 08:52:00,
2013-05-06 02:02:00,60.0,-99.9,29.84,NNE,17,5.0,9.0,-999,-99.99,,,-99.99,,2013-05-06 09:02:00,
2013-05-06 02:11:00,60.0,-99.9,29.84,North,11,6.0,9.0,-999,-99.99,,,-99.99,,2013-05-06 09:11:00,
2013-05-06 02:22:00,60.0,-99.9,29.84,NNE,15,6.0,10.0,-999,-99.99,,,-99.99,,2013-05-06 09:22:00,
2013-05-06 02:33:00,60.0,-99.9,29.84,NNE,13,5.0,9.0,-999,-99.99,,,-99.99,,2013-05-06 09:33:00,
2013-05-06 02:43:00,60.0,-99.9,29.84,NNE,16,6.0,8.0,-999,-99.99,,,-99.99,,2013-05-06 09:43:00,
2013-05-06 02:53:00,60.0,-99.9,29.84,NNE,17,5.0,9.0,-999,-99.99,,,-99.99,,2013-05-06 09:53:00,
2013-05-06 03:03:00,60.0,-99.9,29.84,NNE,18,4.0,8.0,-999,-99.99,,,-99.99,,2013-05-06 10:03:00,
2013-05-06 03:12:00,60.0,-99.9,29.84,NNE,12,5.0,8.0,-999,-99.99,,,-99.99,,2013-05-06 10:12:00,
2013-05-06 03:22:00,60.0,-99.9,29.84,NNE,22,7.0,9.0,-999,-99.99,,,-99.99,,2013-05-06 10:22:00,
2013-05-06 03:33:00,60.0,-99.9,29.84,North,9,8.0,11.0,-999,-99.99,,,-99.99,,2013-05-06 10:33:00,
2013-05-06 03:42:00,60.0,-99.9,29.84,NNE,20,6.0,11.0,-999,-99.99,,,-99.99,,2013-05-06 10:42:00,
2013-05-06 03:52:00,60.0,-99.9,29.84,NNE,15,7.0,11.0,-999,-99.99,,,-99.99,,2013-05-06 10:52:00,
2013-05-06 04:02:00,60.0,-99.9,29.84,North,5,7.0,10.0,-999,-99.99,,,-99.99,,2013-05-06 11:02:00,
2013-05-06 04:12:00,60.0,-99.9,29.83,NNE,14,5.0,9.0,-999,-99.99,,,-99.99,,2013-05-06 11:12:00,
2013-05-06 04:22:00,60.0,-99.9,29.83,NNE,23,8.0,12.0,-999,-99.99,,,-99.99,,2013-05-06 11:22:00,
2013-05-06 04:32:00,60.0,-99.9,29.83,NNE,24,6.0,10.0,-999,-99.99,,,-99.99,,2013-05-06 11:32:00,
2013-05-06 04:42:00,60.0,-99.9,29.83,North,4,7.0,9.0,-999,-99.99,,,-99.99,,2013-05-06 11:42:00,
2013-05-06 04:52:00,60.0,-99.9,29.83,NNE,15,5.0,9.0,-999,-99.99,,,-99.99,,2013-05-06 11:52:00,
2013-05-06 05:02:00,60.0,-99.9,29.83,NNE,15,5.0,8.0,-999,-99.99,,,-99.99,,2013-05-06 12:02:00,
2013-05-06 05:12:00,60.0,-99.9,29.83,NNE,16,5.0,8.0,-999,-99.99,,,-99.99,,2013-05-06 12:12:00,
2013-05-06 05:22:00,60.0,-99.9,29.83,North,7,5.0,9.0,-999,-99.99,,,-99.99,,2013-05-06 12:22:00,
2013-05-06 05:32:00,60.0,-99.9,29.83,NNE,22,7.0,11.0,-999,-99.99,,,-99.99,,2013-05-06 12:32:00,
2013-05-06 05:42:00,60.0,-99.9,29.83,NNE,26,7.0,10.0,-999,-99.99,,,-99.99,,2013-05-06 12:42:00,
2013-05-06 05:52:00,60.0,-99.9,29.83,NNE,29,9.0,11.0,-999,-99.99,,,-99.99,,2013-05-06 12:52:00,
2013-05-06 06:01:00,60.0,-99.9,29.83,NNE,29,7.0,9.0,-999,-99.99,,,-99.99,,2013-05-06 13:01:00,
2013-05-06 06:11:00,60.0,-99.9,29.83,NNE,26,6.0,8.0,-999,-99.99,,,-99.99,,2013-05-06 13:11:00,
2013-05-06 06:22:00,60.0,-99.9,29.83,NNE,19,4.0,6.0,-999,-99.99,,,-99.99,,2013-05-06 13:22:00,
2013-05-06 06:32:00,60.0,-99.9,29.83,North,6,6.0,9.0,-999,-99.99,,,-99.99,,2013-05-06 13:32:00,
2013-05-06 06:42:00,59.0,-99.9,29.83,North,357,6.0,8.0,-999,-99.99,,,-99.99,,2013-05-06 13:42:00,
2013-05-06 06:52:00,59.0,-99.9,29.84,North,8,5.0,8.0,-999,-99.99,,,-99.99,,2013-05-06 13:52:00,
2013-05-06 07:02:00,59.0,-99.9,29.84,NNE,26,8.0,10.0,-999,-99.99,,,-99.99,,2013-05-06 14:02:00,
2013-05-06 07:11:00,59.0,-99.9,29.85,NNE,30,7.0,9.0,-999,-99.99,,,-99.99,,2013-05-06 14:11:00,
2013-05-06 07:21:00,60.0,-99.9,29.85,NE,42,5.0,6.0,-999,-99.99,,,-99.99,,2013-05-06 14:21:00,
2013-05-06 07:32:00,61.0,-99.9,29.85,NE,37,3.0,4.0,-999,-99.99,,,-99.99,,2013-05-06 14:32:00,
2013-05-06 07:42:00,61.0,-99.9,29.85,NE,45,2.0,3.0,-999,-99.99,,,-99.99,,2013-05-06 14:42:00,
2013-05-06 07:52:00,62.0,-99.9,29.86,NE,45,3.0,4.0,-999,-99.99,,,-99.99,,2013-05-06 14:52:00,
2013-05-06 08:01:00,63.0,-99.9,29.86,ENE,59,1.0,3.0,-999,-99.99,,,-99.99,,2013-05-06 15:01:00,
2013-05-06 08:11:00,63.0,-99.9,29.86,ESE,109,1.0,2.0,-999,-99.99,,,-99.99,,2013-05-06 15:11:00,
2013-05-06 08:22:00,63.0,-99.9,29.86,East,92,1.0,4.0,-999,-99.99,,,-99.99,,2013-05-06 15:22:00,
2013-05-06 08:33:00,64.0,-99.9,29.86,ENE,74,1.0,3.0,-999,-99.99,,,-99.99,,2013-05-06 15:33:00,
2013-05-06 08:43:00,64.0,-99.9,29.86,East,95,1.0,3.0,-999,-99.99,,,-99.99,,2013-05-06 15:43:00,
2013-05-06 08:53:00,65.0,-99.9,29.87,East,91,1.0,2.0,-999,-99.99,,,-99.99,,2013-05-06 15:53:00,
2013-05-06 09:03:00,65.0,-99.9,29.87,East,91,1.0,2.0,-999,-99.99,,,-99.99,,2013-05-06 16:03:00,
2013-05-06 09:13:00,65.0,-99.9,29.87,East,91,1.0,2.0,-999,-99.99,,,-99.99,,2013-05-06 16:13:00,
2013-05-06 09:23:00,64.0,-99.9,29.88,SW,228,0.0,2.0,-999,-99.99,,,-99.99,,2013-05-06 16:23:00,
2013-05-06 09:33:00,63.0,-99.9,29.88,WSW,244,3.0,4.0,-999,-99.99,,,-99.99,,2013-05-06 16:33:00,
2013-05-06 09:42:00,63.0,-99.9,29.88,WSW,244,3.0,4.0,-999,-99.99,,,-99.99,,2013-05-06 16:42:00,
2013-05-06 09:52:00,63.0,-99.9,29.88,SW,232,3.0,5.0,-999,-99.99,,,-99.99,,2013-05-06 16:52:00,
2013-05-06 10:03:00,63.0,-99.9,29.88,WSW,249,4.0,6.0,-999,-99.99,,,-99.99,,2013-05-06 17:03:00,
2013-05-06 10:12:00,63.0,-99.9,29.88,WSW,249,4.0,6.0,-999,-99.99,,,-99.99,,2013-05-06 17:12:00,
2013-05-06 10:23:00,63.0,-99.9,29.89,WSW,242,4.0,8.0,-999,-99.99,,,-99.99,,2013-05-06 17:23:00,
2013-05-06 10:32:00,63.0,-99.9,29.89,WSW,242,4.0,7.0,-999,-99.99,,,-99.99,,2013-05-06 17:32:00,
2013-05-06 10:42:00,63.0,-99.9,29.89,WSW,242,4.0,7.0,-999,-99.99,,,-99.99,,2013-05-06 17:42:00,
2013-05-06 10:52:00,63.0,-99.9,29.89,WSW,237,4.0,6.0,-999,-99.99,,,-99.99,,2013-05-06 17:52:00,
2013-05-06 11:02:00,64.0,-99.9,29.89,West,271,3.0,6.0,-999,-99.99,,,-99.99,,2013-05-06 18:02:00,
2013-05-06 11:12:00,64.0,-99.9,29.89,West,271,3.0,6.0,-999,-99.99,,,-99.99,,2013-05-06 18:12:00,
2013-05-06 11:22:00,64.0,-99.9,29.89,SW,214,3.0,4.0,-999,-99.99,,,-99.99,,2013-05-06 18:22:00,
2013-05-06 11:32:00,63.0,-99.9,29.89,SW,224,5.0,7.0,-999,-99.99,,,-99.99,,2013-05-06 18:32:00,
2013-05-06 11:43:00,63.0,-99.9,29.89,SW,223,6.0,7.0,-999,-99.99,,,-99.99,,2013-05-06 18:43:00,
2013-05-06 11:52:00,64.0,-99.9,29.89,SW,220,5.0,9.0,-999,-99.99,,,-99.99,,2013-05-06 18:52:00,
2013-05-06 12:01:00,64.0,-99.9,29.89,SW,223,6.0,9.0,-999,-99.99,,,-99.99,,2013-05-06 19:01:00,
2013-05-06 12:11:00,64.0,-99.9,29.89,SW,226,4.0,7.0,-999,-99.99,,,-99.99,,2013-05-06 19:11:00,
2013-05-06 12:22:00,64.0,-99.9,29.89,SW,234,5.0,7.0,-999,-99.99,,,-99.99,,2013-05-06 19:22:00,
2013-05-06 12:32:00,65.0,-99.9,29.89,SW,233,3.0,5.0,-999,-99.99,,,-99.99,,2013-05-06 19:32:00,
2013-05-06 12:42:00,65.0,-99.9,29.89,WSW,245,3.0,5.0,-999,-99.99,,,-99.99,,2013-05-06 19:42:00,
2013-05-06 12:52:00,66.0,-99.9,29.89,WSW,238,3.0,5.0,-999,-99.99,,,-99.99,,2013-05-06 19:52:00,
2013-05-06 13:02:00,65.0,-99.9,29.89,SSW,209,6.0,8.0,-999,-99.99,,,-99.99,,2013-05-06 20:02:00,
2013-05-06 13:11:00,65.0,-99.9,29.89,SW,219,7.0,10.0,-999,-99.99,,,-99.99,,2013-05-06 20:11:00,
2013-05-06 13:22:00,64.0,-99.9,29.89,SW,236,13.0,16.0,-999,-99.99,,,-99.99,,2013-05-06 20:22:00,
2013-05-06 13:32:00,63.0,-99.9,29.89,SW,233,15.0,19.0,-999,-99.99,,,-99.99,,2013-05-06 20:32:00,
2013-05-06 13:42:00,63.0,-99.9,29.88,SW,229,17.0,20.0,-999,-99.99,,,-99.99,,2013-05-06 20:42:00,
2013-05-06 13:52:00,62.0,-99.9,29.89,SW,231,14.0,17.0,-999,-99.99,,,-99.99,,2013-05-06 20:52:00,
2013-05-06 14:01:00,62.0,-99.9,29.89,WSW,247,11.0,17.0,-999,-99.99,,,-99.99,,2013-05-06 21:01:00,
2013-05-06 14:11:00,62.0,-99.9,29.89,WSW,245,11.0,14.0,-999,-99.99,,,-99.99,,2013-05-06 21:11:00,
2013-05-06 14:22:00,63.0,-99.9,29.90,SW,236,10.0,13.0,-999,-99.99,,,-99.99,,2013-05-06 21:22:00,
2013-05-06 14:33:00,63.0,-99.9,29.90,SW,236,10.0,13.0,-999,-99.99,,,-99.99,,2013-05-06 21:33:00,
2013-05-06 14:43:00,63.0,-99.9,29.90,WSW,240,8.0,11.0,-999,-99.99,,,-99.99,,2013-05-06 21:43:00,
2013-05-06 14:53:00,63.0,-99.9,29.90,SW,234,8.0,11.0,-999,-99.99,,,-99.99,,2013-05-06 21:53:00,
2013-05-06 15:03:00,63.0,-99.9,29.90,SW,234,8.0,11.0,-999,-99.99,,,-99.99,,2013-05-06 22:03:00,
2013-05-06 15:12:00,63.0,-99.9,29.90,SW,234,8.0,11.0,-999,-99.99,,,-99.99,,2013-05-06 22:12:00,
2013-05-06 15:22:00,63.0,-99.9,29.89,WSW,240,12.0,15.0,-999,-99.99,,,-99.99,,2013-05-06 22:22:00,
2013-05-06 15:30:00,64.0,-99.9,29.89,WSW,241,13.0,17.0,-999,-99.99,,,-99.99,,2013-05-06 22:30:00,
2013-05-06 15:33:00,63.0,-99.9,29.89,WSW,241,13.0,15.0,-999,-99.99,,,-99.99,,2013-05-06 22:33:00,
2013-05-06 15:45:00,64.0,-99.9,29.89,WSW,240,12.0,16.0,-999,-99.99,,,-99.99,,2013-05-06 22:45:00,
2013-05-06 15:53:00,64.0,-99.9,29.89,WSW,241,13.0,17.0,-999,-99.99,,,-99.99,,2013-05-06 22:53:00,
2013-05-06 16:03:00,64.0,-99.9,29.89,WSW,241,13.0,17.0,-999,-99.99,,,-99.99,,2013-05-06 23:03:00,
2013-05-06 16:12:00,64.0,-99.9,29.89,WSW,241,13.0,17.0,-999,-99.99,,,-99.99,,2013-05-06 23:12:00,
2013-05-06 16:22:00,64.0,-99.9,29.89,WSW,241,13.0,17.0,-999,-99.99,,,-99.99,,2013-05-06 23:22:00,
2013-05-06 16:42:00,64.0,-99.9,29.88,WSW,243,13.0,17.0,-999,-99.99,,,-99.99,,2013-05-06 23:42:00,
2013-05-06 16:52:00,63.0,-99.9,29.88,WSW,247,14.0,18.0,-999,-99.99,,,-99.99,,2013-05-06 23:52:00,
2013-05-06 17:01:00,63.0,-99.9,29.88,WSW,247,13.0,18.0,-999,-99.99,,,-99.99,,2013-05-07 00:01:00,
2013-05-06 17:12:00,63.0,-99.9,29.88,WSW,247,13.0,18.0,-999,-99.99,,,-99.99,,2013-05-07 00:12:00,
2013-05-06 17:22:00,63.0,-99.9,29.88,WSW,247,13.0,18.0,-999,-99.99,,,-99.99,,2013-05-07 00:22:00,
2013-05-06 17:32:00,63.0,-99.9,29.88,WSW,251,14.0,19.0,-999,-99.99,,,-99.99,,2013-05-07 00:32:00,
2013-05-06 17:42:00,63.0,-99.9,29.89,WSW,253,12.0,18.0,-999,-99.99,,,-99.99,,2013-05-07 00:42:00,
2013-05-06 17:52:00,63.0,-99.9,29.89,WSW,253,12.0,18.0,-999,-99.99,,,-99.99,,2013-05-07 00:52:00,
2013-05-06 18:01:00,62.0,-99.9,29.89,WSW,246,15.0,21.0,-999,-99.99,,,-99.99,,2013-05-07 01:01:00,
2013-05-06 18:11:00,62.0,-99.9,29.89,WSW,248,15.0,20.0,-999,-99.99,,,-99.99,,2013-05-07 01:11:00,
2013-05-06 18:21:00,62.0,-99.9,29.89,WSW,245,15.0,20.0,-999,-99.99,,,-99.99,,2013-05-07 01:21:00,
2013-05-06 18:32:00,62.0,-99.9,29.89,WSW,254,13.0,16.0,-999,-99.99,,,-99.99,,2013-05-07 01:32:00,
2013-05-06 18:42:00,62.0,-99.9,29.89,WSW,250,12.0,17.0,-999,-99.99,,,-99.99,,2013-05-07 01:42:00,
2013-05-06 18:53:00,62.0,-99.9,29.89,WSW,258,11.0,16.0,-999,-99.99,,,-99.99,,2013-05-07 01:53:00,
2013-05-06 19:02:00,62.0,-99.9,29.89,WSW,255,11.0,16.0,-999,-99.99,,,-99.99,,2013-05-07 02:02:00,
2013-05-06 19:11:00,62.0,-99.9,29.89,WSW,255,11.0,16.0,-999,-99.99,,,-99.99,,2013-05-07 02:11:00,
2013-05-06 19:22:00,61.0,-99.9,29.89,WSW,247,11.0,16.0,-999,-99.99,,,-99.99,,2013-05-07 02:22:00,
2013-05-06 19:32:00,62.0,-99.9,29.89,WSW,249,13.0,16.0,-999,-99.99,,,-99.99,,2013-05-07 02:32:00,
2013-05-06 19:42:00,62.0,-99.9,29.89,WSW,250,12.0,16.0,-999,-99.99,,,-99.99,,2013-05-07 02:42:00,
2013-05-06 19:52:00,62.0,-99.9,29.89,WSW,250,12.0,16.0,-999,-99.99,,,-99.99,,2013-05-07 02:52:00,
2013-05-06 20:02:00,61.0,-99.9,29.90,WSW,250,14.0,18.0,-999,-99.99,,,-99.99,,2013-05-07 03:02:00,
2013-05-06 20:12:00,61.0,-99.9,29.90,WSW,244,14.0,18.0,-999,-99.99,,,-99.99,,2013-05-07 03:12:00,
2013-05-06 20:22:00,61.0,-99.9,29.90,WSW,244,13.0,18.0,-999,-99.99,,,-99.99,,2013-05-07 03:22:00,
2013-05-06 20:33:00,61.0,-99.9,29.90,WSW,244,13.0,18.0,-999,-99.99,,,-99.99,,2013-05-07 03:33:00,
2013-05-06 20:43:00,61.0,-99.9,29.91,WSW,248,12.0,19.0,-999,-99.99,,,-99.99,,2013-05-07 03:43:00,
2013-05-06 20:53:00,61.0,-99.9,29.91,WSW,244,13.0,18.0,-999,-99.99,,,-99.99,,2013-05-07 03:53:00,
2013-05-06 21:03:00,61.0,-99.9,29.92,WSW,245,13.0,17.0,-999,-99.99,,,-99.99,,2013-05-07 04:03:00,
2013-05-06 21:12:00,61.0,-99.9,29.92,WSW,245,13.0,17.0,-999,-99.99,,,-99.99,,2013-05-07 04:12:00,
2013-05-06 21:23:00,61.0,-99.9,29.92,WSW,245,13.0,17.0,-999,-99.99,,,-99.99,,2013-05-07 04:23:00,
2013-05-06 21:33:00,61.0,-99.9,29.93,WSW,252,13.0,18.0,-999,-99.99,,,-99.99,,2013-05-07 04:33:00,
2013-05-06 21:42:00,62.0,-99.9,29.94,WSW,252,12.0,18.0,-999,-99.99,,,-99.99,,2013-05-07 04:42:00,
2013-05-06 21:53:00,62.0,-99.9,29.94,WSW,243,12.0,17.0,-999,-99.99,,,-99.99,,2013-05-07 04:53:00,
2013-05-06 22:02:00,62.0,-99.9,29.94,WSW,243,12.0,17.0,-999,-99.99,,,-99.99,,2013-05-07 05:02:00,
2013-05-06 22:12:00,62.0,-99.9,29.96,WSW,248,9.0,13.0,-999,-99.99,,,-99.99,,2013-05-07 05:12:00,
2013-05-06 22:22:00,62.0,-99.9,29.97,West,261,7.0,11.0,-999,-99.99,,,-99.99,,2013-05-07 05:22:00,
2013-05-06 22:32:00,62.0,-99.9,29.97,West,263,6.0,10.0,-999,-99.99,,,-99.99,,2013-05-07 05:32:00,
2013-05-06 22:42:00,62.0,-99.9,29.97,West,263,6.0,10.0,-999,-99.99,,,-99.99,,2013-05-07 05:42:00,
2013-05-06 22:52:00,62.0,-99.9,29.97,West,263,6.0,10.0,-999,-99.99,,,-99.99,,2013-05-07 05:52:00,
2013-05-06 23:02:00,62.0,-99.9,29.98,WSW,253,3.0,4.0,-999,-99.99,,,-99.99,,2013-05-07 06:02:00,
2013-05-06 23:12:00,62.0,-99.9,29.98,WSW,253,3.0,4.0,-999,-99.99,,,-99.99,,2013-05-07 06:12:00,
2013-05-06 23:22:00,62.0,-99.9,29.98,WSW,253,3.0,4.0,-999,-99.99,,,-99.99,,2013-05-07 06:22:00,
2013-05-06 23:32:00,61.0,-99.9,29.98,WSW,258,6.0,9.0,-999,-99.99,,,-99.99,,2013-05-07 06:32:00,
2013-05-06 23:42:00,61.0,-99.9,29.98,WSW,258,6.0,9.0,-999,-99.99,,,-99.99,,2013-05-07 06:42:00,
2013-05-06 23:52:00,61.0,-99.9,29.98,West,265,7.0,11.0,-999,-99.99,,,-99.99,,2013-05-07 06:52:00,